TimeMST,TemperatureF,Dew PointF,Humidity,Sea Level PressureIn,VisibilityMPH,Wind Direction,Wind SpeedMPH,Gust SpeedMPH,PrecipitationIn,Events,Conditions,WindDirDegrees,DateUTC
12:53 AM,24.1,16.0,71,30.15,10.0,SSW,9.2,-,N/A,,Clear,200,2013-01-25 07:53:00
1:53 AM,24.1,16.0,71,30.18,10.0,West,4.6,-,N/A,,Clear,270,2013-01-25 08:53:00
2:53 AM,24.1,16.0,71,30.20,10.0,SSW,9.2,-,N/A,,Clear,210,2013-01-25 09:53:00
3:53 AM,21.0,14.0,74,30.22,10.0,WSW,3.5,-,N/A,,Clear,240,2013-01-25 10:53:00
4:53 AM,19.9,14.0,78,30.24,10.0,SW,8.1,-,N/A,,Clear,220,2013-01-25 11:53:00
5:53 AM,19.9,15.1,81,30.27,10.0,SSW,5.8,-,N/A,,Clear,200,2013-01-25 12:53:00
6:53 AM,19.9,15.1,81,30.29,10.0,SW,3.5,-,N/A,,Clear,230,2013-01-25 13:53:00
7:53 AM,23.0,17.1,78,30.31,10.0,SW,3.5,-,N/A,,Clear,230,2013-01-25 14:53:00
8:53 AM,30.9,17.1,57,30.31,10.0,WNW,6.9,-,N/A,,Clear,290,2013-01-25 15:53:00
9:53 AM,41.0,21.0,45,30.30,10.0,West,4.6,-,N/A,,Clear,270,2013-01-25 16:53:00
10:53 AM,45.0,21.0,39,30.27,10.0,Calm,Calm,-,N/A,,Clear,0,2013-01-25 17:53:00
11:53 AM,48.0,21.0,34,30.23,10.0,Calm,Calm,-,N/A,,Clear,0,2013-01-25 18:53:00
12:53 PM,54.0,21.9,29,30.15,10.0,ENE,3.5,-,N/A,,Clear,60,2013-01-25 19:53:00
1:53 PM,59.0,23.0,25,30.10,10.0,SE,10.4,-,N/A,,Clear,140,2013-01-25 20:53:00
2:53 PM,60.1,24.1,25,30.08,10.0,South,16.1,20.7,N/A,,Clear,170,2013-01-25 21:53:00
3:53 PM,55.9,24.1,29,30.09,10.0,SSE,12.7,-,N/A,,Clear,150,2013-01-25 22:53:00
4:53 PM,52.0,23.0,32,30.09,10.0,SSE,11.5,-,N/A,,Clear,150,2013-01-25 23:53:00
5:53 PM,46.0,23.0,40,30.11,10.0,ESE,8.1,-,N/A,,Clear,120,2013-01-26 00:53:00
6:53 PM,42.1,21.9,45,30.12,10.0,Calm,Calm,-,N/A,,Clear,0,2013-01-26 01:53:00
7:53 PM,37.9,21.0,51,30.11,10.0,East,8.1,-,N/A,,Clear,90,2013-01-26 02:53:00
8:53 PM,37.0,19.9,50,30.09,10.0,ESE,8.1,-,N/A,,Clear,110,2013-01-26 03:53:00
9:53 PM,35.1,21.0,57,30.06,10.0,NE,4.6,-,N/A,,Clear,50,2013-01-26 04:53:00
10:53 PM,42.1,24.1,49,30.04,10.0,Calm,Calm,-,N/A,,Clear,0,2013-01-26 05:53:00
11:53 PM,33.1,21.0,61,30.04,10.0,Calm,Calm,-,N/A,,Clear,0,2013-01-26 06:53:00